FW1703 Weather Reports


time (UTC)temp
F
wind
direction
speed
knots
gust
knots
rain 1hr
in
rain 24hr
in
rain mn
in
humidity
%
barometer
mb
20260505124520 66 159 0.9 9.6 0.00 0.00 0.00 63 1010.7
20260505123020 66 265 2.6 8.7 0.00 0.00 0.00 63 1010.6
20260505121516 65 200 0.9 7.0 0.00 0.00 0.00 65 1010.5
20260505120015 64 195 1.7 5.2 0.00 0.00 0.00 66 1010.4
20260505114515 64 265 1.7 5.2 0.00 0.00 0.00 66 1010.6
20260505113026 64 184 0.9 6.1 0.00 0.00 0.00 66 1010.2
20260505111525 63 184 1.7 6.1 0.00 0.00 0.00 67 1010.1
20260505101521 60 309 0.0 2.6 0.00 0.00 0.00 73 1009.6
20260505100009 60 172 0.9 3.5 0.00 0.00 0.00 72 1009.4
20260505094509 60 165 0.9 6.1 0.00 0.00 0.00 73 1009.3
20260505093008 58 189 0.9 3.5 0.00 0.00 0.00 77 1009.4
20260505091507 58 256 0.0 1.7 0.00 0.00 0.00 77 1009.4
20260505090005 59 351 0.0 1.7 0.00 0.00 0.00 74 1009.4
20260505084607 59 351 0.0 1.7 0.00 0.00 0.00 73 1009.4
20260505083108 61 103 0.0 1.7 0.00 0.00 0.00 69 1009.3
20260505081554 62 314 0.0 1.7 0.00 0.00 0.00 67 1009.2
20260505080055 61 159 0.9 5.2 0.00 0.00 0.00 69 1009.1
20260505074557 61 122 0.0 1.7 0.00 0.00 0.00 70 1009.1
20260505073054 62 65 0.0 1.7 0.00 0.00 0.00 68 1009.1
20260505071550 62 355 0.0 1.7 0.00 0.00 0.00 67 1009.3
20260505070100 63 194 0.0 2.6 0.00 0.00 0.00 65 1009.3
20260505064610 63 95 0.0 8.7 0.00 0.00 0.00 64 1009.4
20260505063042 63 282 0.9 3.5 0.00 0.00 0.00 63 1009.4
20260505061608 63 198 1.7 7.0 0.00 0.00 0.00 63 1009.2
20260505060051 63 161 2.6 8.7 0.00 0.00 0.00 62 1009.2
20260505054548 63 136 3.5 9.6 0.00 0.00 0.00 62 1009.2
20260505053036 63 204 1.7 9.6 0.00 0.00 0.00 61 1009.1
20260505051540 63 213 2.6 7.8 0.00 0.00 0.00 61 1009.2
20260505041535 65 200 1.7 6.1 0.00 0.00 0.00 56 1009.2
20260505040039 65 190 5.2 10.4 0.00 0.00 0.00 55 1009.1
20260505034538 65 215 2.6 7.8 0.00 0.00 0.00 54 1009.0
20260505033031 65 246 3.5 11.3 0.00 0.00 0.00 54 1008.8
20260505031530 65 191 1.7 8.7 0.00 0.00 0.00 54 1008.9
20260505030033 65 163 0.9 7.8 0.00 0.00 0.00 54 1008.8
20260505024526 65 216 3.5 7.8 0.00 0.00 0.00 53 1009.0
20260505023032 65 180 2.6 6.1 0.00 0.00 0.00 52 1009.1
20260505021534 65 218 2.6 5.2 0.00 0.00 0.00 52 1009.1
20260505020016 66 155 3.5 8.7 0.00 0.00 0.00 51 1009.2
20260505014517 66 165 1.7 7.8 0.00 0.00 0.00 51 1009.3
20260505013016 66 207 1.7 6.1 0.00 0.00 0.00 51 1009.2
20260505011513 66 148 2.6 5.2 0.00 0.00 0.00 51 1009.1
20260505010011 66 184 2.6 7.0 0.00 0.00 0.00 51 1009.0
20260505004516 67 161 2.6 6.1 0.00 0.00 0.00 51 1008.8
20260505003008 67 170 1.7 6.1 0.00 0.00 0.00 50 1008.8
20260505001509 68 234 2.6 8.7 0.00 0.00 0.00 48 1008.7
20260505000014 69 167 1.7 8.7 0.00 0.00 0.00 47 1008.6
20260504234510 69 240 2.6 9.6 0.00 0.00 0.00 47 1008.5
20260504233008 70 171 3.5 7.0 0.00 0.00 0.00 46 1008.4
20260504231509 70 202 3.5 10.4 0.00 0.00 0.00 45 1008.4
20260504230006 71 173 2.6 8.7 0.00 0.00 0.00 44 1008.4
20260504224508 72 192 2.6 7.8 0.00 0.00 0.00 43 1008.3
20260504223005 73 155 4.3 8.7 0.00 0.00 0.00 42 1008.3
20260504221504 74 168 3.5 9.6 0.00 0.00 0.00 42 1008.3
20260504220011 75 193 1.7 9.6 0.00 0.00 0.00 39 1008.3
20260504214600 76 219 1.7 6.1 0.00 0.00 0.00 39 1008.4
20260504213110 76 246 3.5 7.8 0.00 0.00 0.00 38 1008.4
20260504211559 76 242 2.6 7.0 0.00 0.00 0.00 39 1008.5
20260504210054 76 165 2.6 12.2 0.00 0.00 0.00 40 1008.5
20260504204602 76 227 3.5 11.3 0.00 0.00 0.00 39 1008.7
20260504203058 76 155 3.5 10.4 0.00 0.00 0.00 39 1008.8
20260504201552 76 153 2.6 10.4 0.00 0.00 0.00 39 1008.9
20260504200054 77 220 2.6 9.6 0.00 0.00 0.00 38 1009.1
20260504194551 76 178 3.5 10.4 0.00 0.00 0.00 39 1009.3
20260504193059 76 132 2.6 8.7 0.00 0.00 0.00 39 1009.4
20260504191545 75 218 2.6 11.3 0.00 0.00 0.00 39 1009.7
20260504190052 75 248 3.5 11.3 0.00 0.00 0.00 40 1009.7
20260504184547 75 188 1.7 8.7 0.00 0.00 0.00 38 1009.9
20260504183056 75 121 2.6 7.0 0.00 0.00 0.00 43 1010.1
20260504181537 74 155 2.6 11.3 0.00 0.00 0.00 40 1010.3
20260504180049 73 252 4.3 11.3 0.00 0.00 0.00 39 1010.5
20260504174533 73 220 4.3 10.4 0.00 0.00 0.00 41 1010.7
20260504173035 73 159 2.6 7.0 0.00 0.00 0.00 43 1010.9
20260504171530 72 146 4.3 9.6 0.00 0.00 0.00 40 1011.3